| time (UTC) | temp C | wind direction | speed KPH | gust KPH | rain 1hr cm | rain 24hr cm | rain mn cm | humidity % | barometer mb |
| 20260506134543 | 13 | 0 | 0.0 | 0.0 | 0.00 | 0.00 | 0.00 | 87 | 1019.8 |
| 20260506133052 | 13 | 0 | 0.0 | 0.0 | 0.00 | 0.00 | 0.00 | 86 | 1019.7 |
| 20260506131544 | 13 | 0 | 0.0 | 0.0 | 0.00 | 0.00 | 0.00 | 86 | 1019.7 |
| 20260506130044 | 13 | 0 | 0.0 | 0.0 | 0.00 | 0.00 | 0.00 | 85 | 1019.5 |
| 20260506124543 | 13 | 313 | 0.0 | 4.8 | 0.00 | 0.00 | 0.00 | 85 | 1019.5 |
| 20260506123042 | 13 | 313 | 0.0 | 6.4 | 0.00 | 0.00 | 0.00 | 85 | 1019.5 |
| 20260506121545 | 13 | 313 | 3.2 | 6.4 | 0.00 | 0.00 | 0.00 | 85 | 1019.5 |
| 20260506120050 | 13 | 0 | 0.0 | 8.0 | 0.00 | 0.00 | 0.00 | 85 | 1019.3 |
| 20260506114543 | 13 | 321 | 3.2 | 8.0 | 0.00 | 0.00 | 0.00 | 84 | 1019.2 |
| 20260506113048 | 13 | 0 | 1.6 | 11.3 | 0.00 | 0.00 | 0.00 | 84 | 1019.1 |
| 20260506111543 | 13 | 286 | 1.6 | 11.3 | 0.00 | 0.00 | 0.00 | 84 | 1018.8 |
| 20260506110048 | 13 | 292 | 3.2 | 8.0 | 0.00 | 0.00 | 0.00 | 84 | 1018.7 |
| 20260506104554 | 13 | 315 | 0.0 | 6.4 | 0.00 | 0.00 | 0.00 | 84 | 1018.5 |
| 20260506103044 | 13 | 0 | 1.6 | 8.0 | 0.00 | 0.00 | 0.00 | 83 | 1018.4 |
| 20260506101549 | 14 | 317 | 3.2 | 6.4 | 0.00 | 0.00 | 0.00 | 82 | 1018.1 |
| 20260506100042 | 14 | 0 | 1.6 | 4.8 | 0.00 | 0.00 | 0.00 | 83 | 1018.1 |
| 20260506094540 | 14 | 0 | 0.0 | 0.0 | 0.00 | 0.00 | 0.00 | 83 | 1018.1 |
| 20260506093043 | 14 | 317 | 0.0 | 4.8 | 0.00 | 0.00 | 0.00 | 83 | 1017.9 |
| 20260506091543 | 14 | 0 | 0.0 | 3.2 | 0.00 | 0.00 | 0.00 | 83 | 1017.9 |
| 20260506090042 | 14 | 0 | 0.0 | 3.2 | 0.00 | 0.00 | 0.00 | 83 | 1017.9 |
| 20260506084544 | 14 | 0 | 0.0 | 4.8 | 0.00 | 0.00 | 0.00 | 83 | 1017.8 |
| 20260506083050 | 15 | 0 | 0.0 | 4.8 | 0.00 | 0.00 | 0.00 | 84 | 1018.0 |
| 20260506081544 | 15 | 0 | 1.6 | 6.4 | 0.00 | 0.00 | 0.00 | 86 | 1017.8 |
| 20260506073046 | 15 | 0 | 0.0 | 0.0 | 0.00 | 0.00 | 0.00 | 87 | 1017.5 |
| 20260506071541 | 15 | 0 | 0.0 | 0.0 | 0.00 | 0.00 | 0.00 | 87 | 1017.4 |
| 20260506061543 | 15 | 0 | 0.0 | 0.0 | 0.00 | 0.00 | 0.00 | 85 | 1017.1 |
| 20260506044611 | 15 | 0 | 0.0 | 1.6 | 0.00 | 0.00 | 0.00 | 82 | 1016.5 |
| 20260506043046 | 15 | 0 | 0.0 | 1.6 | 0.00 | 0.00 | 0.00 | 81 | 1016.5 |
| 20260506041545 | 16 | 319 | 0.0 | 4.8 | 0.00 | 0.00 | 0.00 | 80 | 1016.2 |
| 20260506040047 | 16 | 0 | 0.0 | 0.0 | 0.00 | 0.00 | 0.00 | 81 | 1016.0 |
| 20260506034549 | 16 | 0 | 0.0 | 0.0 | 0.00 | 0.00 | 0.00 | 79 | 1015.9 |
| 20260506033041 | 16 | 0 | 0.0 | 0.0 | 0.00 | 0.00 | 0.00 | 78 | 1015.7 |
| 20260506031549 | 16 | 0 | 0.0 | 0.0 | 0.00 | 0.00 | 0.00 | 78 | 1015.6 |
| 20260506030044 | 16 | 0 | 0.0 | 0.0 | 0.00 | 0.00 | 0.00 | 77 | 1015.6 |
| 20260506024547 | 16 | 0 | 0.0 | 0.0 | 0.00 | 0.00 | 0.00 | 76 | 1015.5 |
| 20260506023057 | 16 | 0 | 0.0 | 1.6 | 0.00 | 0.00 | 0.00 | 75 | 1015.6 |
| 20260506021555 | 17 | 0 | 0.0 | 0.0 | 0.00 | 0.00 | 0.00 | 75 | 1015.4 |
| 20260506020043 | 17 | 0 | 0.0 | 0.0 | 0.00 | 0.00 | 0.00 | 75 | 1015.4 |
| 20260506014545 | 17 | 0 | 0.0 | 1.6 | 0.00 | 0.00 | 0.00 | 74 | 1015.4 |
| 20260506013043 | 17 | 0 | 0.0 | 1.6 | 0.00 | 0.00 | 0.00 | 74 | 1015.3 |
| 20260506011542 | 17 | 0 | 0.0 | 3.2 | 0.00 | 0.00 | 0.00 | 72 | 1015.4 |
| 20260506010055 | 17 | 0 | 0.0 | 3.2 | 0.00 | 0.00 | 0.00 | 72 | 1015.4 |
| 20260506004548 | 17 | 0 | 0.0 | 4.8 | 0.00 | 0.00 | 0.00 | 72 | 1015.5 |
| 20260506003042 | 17 | 0 | 0.0 | 6.4 | 0.00 | 0.00 | 0.00 | 69 | 1015.5 |
| 20260506001546 | 17 | 319 | 0.0 | 6.4 | 0.00 | 0.00 | 0.00 | 73 | 1015.5 |
| 20260506000048 | 17 | 0 | 0.0 | 8.0 | 0.00 | 0.00 | 0.00 | 69 | 1015.6 |
| 20260505234605 | 17 | 0 | 1.6 | 11.3 | 0.00 | 0.00 | 0.00 | 70 | 1015.8 |
| 20260505233043 | 17 | 270 | 4.8 | 11.3 | 0.00 | 0.00 | 0.00 | 71 | 1015.8 |
| 20260505231549 | 17 | 284 | 3.2 | 11.3 | 0.00 | 0.00 | 0.00 | 71 | 1015.9 |
| 20260505230047 | 17 | 322 | 3.2 | 14.5 | 0.00 | 0.00 | 0.00 | 71 | 1015.9 |
| 20260505224548 | 17 | 271 | 6.4 | 14.5 | 0.00 | 0.00 | 0.00 | 71 | 1016.0 |
| 20260505223044 | 17 | 286 | 3.2 | 12.9 | 0.00 | 0.00 | 0.00 | 71 | 1016.2 |
| 20260505221550 | 17 | 0 | 3.2 | 8.0 | 0.00 | 0.00 | 0.00 | 72 | 1016.0 |
| 20260505220051 | 17 | 0 | 0.0 | 4.8 | 0.00 | 0.00 | 0.00 | 73 | 1016.2 |
| 20260505214604 | 17 | 338 | 1.6 | 6.4 | 0.00 | 0.00 | 0.00 | 71 | 1016.3 |
| 20260505213058 | 18 | 0 | 0.0 | 6.4 | 0.00 | 0.00 | 0.00 | 70 | 1016.3 |
| 20260505211549 | 18 | 0 | 0.0 | 9.7 | 0.00 | 0.00 | 0.00 | 70 | 1016.3 |
| 20260505210057 | 18 | 346 | 3.2 | 8.0 | 0.00 | 0.00 | 0.00 | 69 | 1016.4 |
| 20260505204556 | 18 | 61 | 0.0 | 8.0 | 0.00 | 0.00 | 0.00 | 72 | 1016.4 |
| 20260505203054 | 16 | 0 | 0.0 | 4.8 | 0.00 | 0.00 | 0.00 | 78 | 1016.6 |
| 20260505201554 | 16 | 59 | 0.0 | 0.0 | 0.00 | 0.00 | 0.00 | 79 | 1016.8 |
| 20260505200105 | 16 | 0 | 0.0 | 1.6 | 0.00 | 0.00 | 0.00 | 77 | 1016.7 |
| 20260505194559 | 16 | 0 | 0.0 | 3.2 | 0.00 | 0.00 | 0.00 | 80 | 1016.8 |
| 20260505193051 | 15 | 0 | 0.0 | 1.6 | 0.00 | 0.00 | 0.00 | 79 | 1016.8 |
| 20260505191541 | 15 | 0 | 0.0 | 4.8 | 0.00 | 0.00 | 0.00 | 79 | 1016.8 |
| 20260505190056 | 15 | 59 | 0.0 | 4.8 | 0.00 | 0.00 | 0.00 | 80 | 1016.8 |
| 20260505184551 | 15 | 0 | 0.0 | 1.6 | 0.00 | 0.00 | 0.00 | 80 | 1016.9 |
| 20260505183054 | 15 | 252 | 1.6 | 6.4 | 0.00 | 0.00 | 0.00 | 79 | 1017.0 |
| 20260505181542 | 15 | 252 | 3.2 | 8.0 | 0.00 | 0.00 | 0.00 | 78 | 1016.9 |
| 20260505174559 | 15 | 265 | 0.0 | 6.4 | 0.00 | 0.00 | 0.00 | 78 | 1016.8 |
| 20260505173048 | 14 | 252 | 3.2 | 8.0 | 0.00 | 0.00 | 0.00 | 80 | 1016.7 |
| 20260505171547 | 14 | 0 | 0.0 | 3.2 | 0.00 | 0.00 | 0.00 | 81 | 1016.6 |
| 20260505170050 | 13 | 0 | 1.6 | 6.4 | 0.00 | 0.00 | 0.00 | 82 | 1016.7 |
| 20260505164545 | 13 | 214 | 0.0 | 4.8 | 0.00 | 0.00 | 0.00 | 83 | 1016.6 |
| 20260505163044 | 13 | 0 | 0.0 | 8.0 | 0.00 | 0.00 | 0.00 | 84 | 1016.5 |
| 20260505161558 | 13 | 0 | 0.0 | 8.0 | 0.00 | 0.00 | 0.00 | 85 | 1016.6 |
| 20260505153049 | 12 | 0 | 0.0 | 6.4 | 0.00 | 0.00 | 0.00 | 87 | 1016.4 |
| 20260505151548 | 12 | 0 | 0.0 | 4.8 | 0.00 | 0.00 | 0.00 | 87 | 1016.3 |